Station SPGF1 - Settlement Point, GBI, Bahamas Image indicating link to RSS feed of recent meteorological observations for station SPGF1


Conditions at SPGF1 as of
(3:00 am EDT)
0700 GMT on 07/18/2024:
     

Click on the graph icon in the table below to see a time series plot of the last five days of that observation.

5-day plot - Wind Direction Wind Direction (WDIR): SE ( 140 deg true )
5-day plot - Wind Speed Wind Speed (WSPD): 6 kts
5-day plot - Wind Gust Wind Gust (GST): 7 kts
5-day plot - Atmospheric Pressure Atmospheric Pressure (PRES):30.03 in
5-day plot - Pressure Tendency Pressure Tendency (PTDY):-0.06 in ( Falling )
5-day plot - Air Temperature Air Temperature (ATMP): 82.4 °F
5-day plot - Wind Speed at 10 Meters Wind Speed at 10 meters (WSPD10M): 6 kts
5-day plot - Wind Speed at 20 Meters Wind Speed at 20 meters (WSPD20M): 8 kts
5-day plot -  Wind Speed, Wind Gust and Atmospheric Pressure Combined plot of Wind Speed, Gust, and Air Pressure
Continuous Winds
TIME
(EDT)
5-day plot - Wind Direction WDIR 5-day plot - Wind Speed WSPD
3:00 amSE ( 135 deg ) 6 kts
2:50 amSE ( 135 deg ) 6 kts
2:40 amSE ( 134 deg ) 7 kts
2:30 amSE ( 136 deg ) 6 kts
2:20 amSE ( 141 deg ) 6 kts
2:10 amSE ( 134 deg ) 7 kts
 
Peak gust during the measurement hour
TIME
(EDT)
5-day plot - Gust Direction GDR 5-day plot - Gust Speed GST
2:04 amSE ( 140 deg ) 10 kts
Previous observations
TIME
(EDT)
5-day plot - Wind Direction
WDIR
 
5-day plot - Wind Speed
WSPD
kts
5-day plot - Wind Gust
GST
kts
5-day plot - Wave Height
WVHT
ft
5-day plot - Dominant Wave Period
DPD
sec
5-day plot - Average Wave Period
APD
sec
5-day plot - Mean Wave Direction
MWD
 
5-day plot - Atmospheric Pressure
PRES
in
5-day plot - Pressure Tendency
PTDY
in
5-day plot - Air Temperature
ATMP
°F
5-day plot - Water Temperature
WTMP
°F
5-day plot - Dew Point
DEWP
°F
5-day plot - Salinity
SAL
psu
5-day plot - Visibility
VIS
nmi
5-day plot - Tide (above MLLW)
TIDE
ft
2024-07-18 02:00 am SE 7 9----30.06-0.04 82.9-----
2024-07-18 01:00 am SE 7 9----30.07-0.03 83.1-----
2024-07-18 12:00 am SE 7 10----30.09+0.00 82.6-----
2024-07-17 11:00 pmESE 10 13----30.09+0.00 84.2-----
2024-07-17 10:00 pm E 9 11----30.10+0.02 84.6-----
2024-07-17 09:00 pmENE 11 13----30.09+0.02 84.0-----
2024-07-17 08:00 pmENE 9 10----30.09+0.03 84.4-----
2024-07-17 07:00 pmENE 8 8----30.08+0.00 84.0-----
2024-07-17 06:00 pmNNE 7 9----30.06-0.01 83.3-----
2024-07-17 05:00 pm- 0 1----30.06-0.02 80.4-----
2024-07-17 04:00 pm N 5 6----30.07-0.02 82.0-----
2024-07-17 03:00 pm N 7 8----30.07-0.03 82.9-----
2024-07-17 02:00 pm S 6 8----30.08-0.03 85.8-----
2024-07-17 01:00 pmENE 2 2----30.09-0.01 84.6-----
2024-07-17 12:00 pmNNE 7 9----30.10+0.00 80.6-----
2024-07-17 11:00 amSSE 8 11----30.11+0.02 81.7-----
2024-07-17 10:00 am E 6 7----30.10+0.03 84.7-----
2024-07-17 09:00 am E 6 8----30.10+0.06 84.4-----
2024-07-17 08:00 am E 4 5----30.09+0.06 83.7-----
2024-07-17 07:00 am SE 5 6----30.07+0.04 82.6-----
2024-07-17 06:00 am SE 3 4----30.04+0.00 81.5-----
2024-07-17 05:00 am SE 3 4----30.03-0.03 81.1-----
2024-07-17 04:00 am SE 7 8----30.03-0.06 81.1-----
2024-07-17 03:00 amSSE 7 8----30.04-0.04 81.3-----